Home > Weather > Kapurthala > Past weeks

Flag for India Past Weather in Kapurthala, Punjab, India — Yesterday and Last 2 Weeks

Now
75 °F

Thunderstorms. More clouds than sun.


Feels Like: 73 °F
Forecast: 82 / 94 °F
Wind: 6 mph from Southeast

Location: Amritsar Airport

Current Time: Aug 24, 2016 at 3:58:35 PM

Latest Report: Aug 24, 2016 at 3:00 PM


Visibility: 2 mi

Pressure: 29.68 "Hg

Humidity: 100%

Dew Point: 75 °F

Location of KapurthalaLocation

Past Weather in Kapurthala — Graph

°F

Kapurthala Temperature Yesterday

Maximum temperature yesterday: 93 °F (at 2:00 PM)
Minimum temperature yesterday: 79 °F (at 1:00 AM)
Average temperature yesterday: 85 °F

High & Low Weather Summary for the Past Weeks

 TemperatureHumidityPressure
High95 °F (Aug 13, 3:00 PM)100% (Aug 9, 9:00 PM)29.71 "Hg (Aug 9, 9:00 PM)
Low75 °F (Aug 18, 2:00 AM)50% (Aug 19, 4:00 PM)29.42 "Hg (Aug 9, 5:30 PM)
Average85 °F90%29.57 "Hg
* Reported Aug 9 11:30 AM — Aug 24 11:30 AM, Kapurthala, Weather by CustomWeather, © 2016

Note: Actual official high and low records may vary slightly from our data, if they occured in-between our weather recording intervals... More about our weather records

Advertising

Kapurthala Weather History for the Previous 24 Hours

Scroll right to see more
 ConditionsComfort  
Time TempWeatherWind HumidityBarometerVisibility
11:30 AM
Wed, Aug 24
75 °FThunderstorms. More clouds than sun.12 mph100%29.71 "Hg1 mi
10:30 AM90 °FFog.1 mph84%29.68 "Hg3 mi
10:00 AM88 °FFog.No wind89%29.68 "Hg2 mi
9:30 AM90 °FFog.No wind89%29.68 "Hg2 mi
9:00 AM88 °FFog.No wind94%29.68 "Hg1 mi
8:30 AM86 °FFog.No wind100%29.68 "Hg1 mi
8:00 AM84 °FFog.No wind100%29.65 "Hg1 mi
7:30 AM84 °FFog.No wind100%29.65 "Hg1 mi
6:30 AM84 °FFog.2 mph100%29.65 "Hg1 mi
5:30 AM84 °FFog.No wind100%29.62 "Hg1 mi
5:00 AM84 °FFog.No wind100%29.62 "Hg1 mi
4:30 AM84 °FFog.No wind100%29.62 "Hg1 mi
4:00 AM84 °FFog.No wind100%29.62 "Hg1 mi
3:30 AM84 °FFog.No wind100%29.62 "Hg1 mi
3:00 AM84 °FFog.No wind100%29.62 "Hg1 mi
2:30 AM84 °FFog.No wind100%29.62 "Hg2 mi
2:00 AM84 °FFog.No wind100%29.62 "Hg2 mi
1:30 AM84 °FFog.No wind100%29.62 "Hg2 mi
1:00 AM84 °FFog.No wind100%29.62 "Hg2 mi
12:30 AM86 °FFog.No wind100%29.62 "Hg2 mi
12:00 AM86 °FFog.No wind100%29.62 "Hg2 mi
11:30 PM
Tue, Aug 23
86 °FFog.No wind100%29.65 "Hg2 mi
11:00 PM86 °FFog.No wind100%29.65 "Hg2 mi
10:30 PM86 °FFog.No wind100%29.65 "Hg2 mi
10:00 PM86 °FFog.No wind100%29.65 "Hg2 mi
9:30 PM86 °FFog.No wind100%29.62 "Hg2 mi
9:00 PM86 °FFog.No wind100%29.62 "Hg2 mi
8:30 PM88 °FFog.No wind84%29.62 "Hg2 mi
8:00 PM88 °FFog.No wind84%29.59 "Hg3 mi
7:30 PM88 °FFog.No wind79%29.59 "Hg3 mi
7:00 PM88 °FScattered clouds.No wind84%29.59 "Hg3 mi
6:30 PM90 °FScattered clouds.No wind79%29.59 "Hg3 mi
6:00 PM91 °FScattered clouds.2 mph71%29.59 "Hg3 mi
5:30 PM91 °FScattered clouds.No wind71%29.59 "Hg4 mi
5:00 PM91 °FScattered clouds.2 mph75%29.59 "Hg4 mi
4:30 PM91 °FScattered clouds.1 mph75%29.62 "Hg4 mi
4:00 PM93 °FBroken clouds.2 mph71%29.62 "Hg4 mi
3:30 PM91 °FBroken clouds.No wind75%29.62 "Hg4 mi
3:00 PM91 °FBroken clouds.No wind71%29.65 "Hg4 mi
Weather by CustomWeather, © 2016

See weather overviewHow to use our weather pages